sat.trackr.live / text

‹ back to catalog

STARLINK-3045

NORAD 49173 · 2021-082AV

PAYLOAD ACTIVE UNKNOWN

§ Identity

Operator
Country
US
Launch date
2021-09-14
Launch site
AFWTR
Launch vehicle
Mass (kg)
RCS (m²)

Purposes: comms

External: N2YO · Heavens-Above · Gunter

§ Orbital elements

Epoch: 2026-09-15T00:00:02.000160Z

Period
94.16 min
Inclination
69.9991°
Eccentricity
0.0003668
Mean motion
15.29385885 rev/d
Perigee alt
475.1 km
Apogee alt
480.2 km
Semi-major
6,855.8 km
B*
1.9388e-3
RAAN
155.7445°
Arg perigee
271.3306°
Mean anomaly
158.9737°
Rev number
577

§ Raw data

STARLINK-30451 49173U 21082AV  26258.00002315  .00055690  00000+0  19388-2 0  99962 49173  69.9991 155.7445 0003668 271.3306 158.9737 15.29385885  5778

JSON: /api/v1/satellites/49173 · /tle

For live sub-satellite position, see the globe view (requires WebGL).

§ Visibility from observer

Set your observer location to see the next 7 days of passes ≥ 10°. The values pass through the URL so the page stays shareable.

No JS? Fill the form by hand. The geolocation button needs JavaScript.